Wind_Speed
8 7 7 7 7 8 8 8 7 6 6 5 5 4 3 3 3 2 3 3 3 3 4 4 3 3 4 4 4 4 5 4 4 4 4 3 3 3 3 4 4 4 4
8 8 7 7 7 7 8 8 8 7 6 6 5 4 3 2 2 2 2 3 3 3 3 4 4 4 4 4 4 4 5 5 4 4 4 3 4 3 3 4 4 4 4
8 8 8 8 7 7 8 8 8 8 7 6 5 4 3 2 1 1 2 3 3 2 3 4 5 5 5 4 5 5 5 5 4 4 4 4 4 4 4 4 4 5 5
8 8 8 8 8 8 8 8 7 7 7 6 5 5 3 2 2 0 1 1 2 2 3 3 4 4 4 5 5 5 5 5 4 4 4 4 5 5 5 5 5 5 5
9 9 9 9 9 8 7 8 7 7 6 6 5 5 3 2 2 1 1 1 1 2 2 4 4 4 5 5 5 5 5 5 5 5 4 5 5 5 6 5 5 5 5
9 9 9 8 8 9 9 8 8 7 6 6 5 5 4 3 2 1 1 0 1 2 3 3 4 5 5 6 6 6 6 6 6 5 5 5 5 6 6 6 5 6 5
10 10 9 8 8 9 9 9 8 7 7 6 5 5 4 3 1 1 1 1 2 2 2 3 4 5 6 6 6 6 6 6 6 6 5 5 5 5 6 6 6 6 6
10 10 10 9 8 8 9 8 8 7 7 6 5 5 4 3 1 1 1 1 2 2 2 3 4 4 6 6 6 6 6 6 6 6 5 5 6 5 6 6 6 7 6
11 11 10 9 8 8 8 8 7 7 7 6 5 4 4 3 2 1 1 2 2 2 3 3 5 5 6 6 6 7 7 6 6 6 5 5 6 6 6 6 7 7 7
11 11 10 9 8 8 8 7 6 6 6 6 5 4 3 2 1 1 1 2 3 4 4 4 4 5 5 6 6 7 7 7 6 6 6 5 6 6 7 7 7 7 7
10 11 10 9 9 8 7 6 6 6 6 5 5 4 3 2 2 1 1 2 3 4 4 4 4 5 5 6 6 6 7 7 7 7 7 7 7 7 8 7 7 7 7
10 10 10 9 8 8 7 7 6 6 5 5 5 4 3 3 2 2 2 3 3 3 4 4 4 5 5 6 6 6 7 7 8 7 8 8 8 8 8 8 8 8 8
9 9 9 9 9 8 7 7 6 5 5 5 4 3 3 2 3 3 3 3 3 4 4 4 5 5 5 6 6 7 8 8 9 9 9 9 9 9 9 9 9 9 9
9 9 8 8 8 8 8 7 6 6 5 5 4 3 3 3 3 4 4 3 4 4 5 5 6 5 5 6 7 7 7 8 8 9 9 9 10 10 9 10 10 10 11
9 9 8 8 8 8 8 8 7 7 6 5 5 4 4 4 4 4 4 4 5 5 6 6 7 6 6 7 8 8 8 9 9 9 10 9 9 10 10 11 12 12 11
9 9 8 9 9 9 9 8 8 7 6 6 6 5 5 5 5 5 5 5 5 6 6 7 7 8 8 8 9 9 9 9 10 10 11 11 10 10 10 11 12 12 12
9 9 9 9 9 9 8 8 8 8 8 7 7 7 6 6 6 6 5 5 6 7 8 8 8 9 9 9 10 10 10 10 10 11 12 12 12 11 11 12 12 12 13
9 9 9 9 9 9 9 9 9 9 8 9 8 8 8 7 6 6 7 6 7 8 9 9 10 10 11 11 11 11 11 11 11 12 12 13 13 13 12 12 13 13 14
9 9 9 10 9 9 9 10 10 9 9 9 9 9 9 8 7 7 8 7 8 9 9 10 10 11 12 12 12 12 12 12 13 13 13 13 14 14 14 14 15 15 15
10 10 9 9 10 10 10 10 10 9 9 9 9 9 9 9 8 8 9 8 9 9 9 10 11 11 12 13 13 13 14 14 14 14 14 14 14 15 15 15 16 16 16
9 10 10 10 10 10 10 10 11 10 10 9 9 9 9 9 9 10 10 9 9 10 10 11 12 12 12 12 14 14 15 15 15 15 16 16 16 16 16 16 17 17 17
9 10 10 11 11 11 11 12 11 11 10 9 9 9 10 10 10 10 10 10 10 10 10 11 11 12 12 13 14 15 16 16 16 16 16 17 17 17 17 17 17 17 17
9 10 10 11 11 12 12 13 12 11 10 10 10 10 10 10 10 10 11 11 11 11 11 11 12 13 13 13 14 15 15 17 17 17 17 18 18 18 18 18 18 18 18
9 10 10 11 12 13 13 13 12 11 11 10 10 11 11 11 10 11 12 11 11 12 12 12 13 13 14 14 14 15 16 17 17 18 18 18 19 19 19 20 19 19 19
10 10 11 11 13 14 14 14 13 12 11 11 11 12 12 12 11 12 12 12 12 12 12 13 13 13 14 14 15 16 17 17 17 18 19 19 20 21 21 21 21 21 21
10 11 12 13 14 15 15 14 13 12 11 11 12 13 13 13 13 13 13 13 13 13 13 13 13 14 14 15 16 15 16 17 18 18 20 20 20 20 21 22 22 22 22
Wind_Direction
60 60 60 66 67 68 70 73 76 72 68 68 69 70 81 76 89 119 153 160 167 179 190 197 198 200 203 200 196 204 205 204 210 211 210 218 221 213 210 210 201 203 193
61 60 58 64 67 66 67 70 70 70 70 70 70 72 81 82 95 141 176 179 186 197 203 195 195 201 204 202 199 204 206 201 209 210 216 226 220 217 212 207 198 205 201
62 60 57 60 64 65 65 70 72 69 67 64 62 63 63 62 72 143 190 191 195 198 206 204 208 210 208 207 209 210 205 205 213 219 231 228 218 219 212 203 207 205 200
61 60 58 61 61 60 62 67 70 69 65 63 56 48 43 38 32 27 221 232 229 220 218 226 223 219 211 210 213 212 211 215 216 221 229 223 221 219 213 206 214 213 208
58 61 62 62 59 56 56 59 61 64 64 60 51 41 37 26 8 356 331 301 248 237 223 214 218 218 211 208 211 212 217 223 225 227 222 220 221 219 221 219 220 220 217
59 60 61 59 55 57 61 60 57 56 54 50 42 33 24 15 7 7 341 135 201 223 211 212 216 217 214 214 217 221 226 228 230 230 224 223 229 228 227 227 228 221 219
61 58 55 51 53 56 55 53 50 52 48 41 36 27 19 21 32 14 279 240 204 200 210 214 220 219 218 216 218 219 227 227 230 227 223 226 231 231 228 224 227 222 221
58 55 51 53 54 52 50 50 48 46 41 33 22 20 22 28 30 5 275 234 213 208 216 222 220 223 219 218 220 225 227 227 225 220 222 231 232 229 226 224 225 226 230
51 50 49 50 54 53 50 47 45 40 33 23 13 10 14 10 360 327 274 231 231 229 236 245 235 227 221 221 224 226 227 228 223 220 227 238 233 232 230 227 226 229 235
51 49 49 51 54 52 54 48 40 31 25 22 17 12 9 356 339 318 292 257 244 242 247 253 239 231 233 226 223 226 226 231 232 231 235 236 235 234 228 227 229 229 232
51 49 49 52 50 48 48 42 35 26 17 20 19 13 357 349 344 319 287 264 261 252 251 253 246 237 234 228 230 232 231 240 239 237 234 237 239 238 234 233 233 233 233
48 45 45 45 44 39 38 36 29 22 14 13 10 9 359 345 339 318 286 268 268 262 259 256 245 241 238 235 236 230 236 239 242 238 238 241 242 241 237 238 240 239 240
44 43 40 36 34 32 29 25 19 12 9 6 3 1 354 336 318 305 295 280 282 272 257 251 240 240 242 242 242 241 241 241 243 242 245 247 248 245 239 237 241 244 245
35 33 32 28 27 25 20 14 11 5 8 6 2 355 342 327 314 298 284 277 275 269 257 250 242 243 248 250 247 246 246 245 247 246 249 253 250 248 247 245 245 247 248
29 26 23 20 18 13 10 6 1 1 3 0 357 351 341 323 311 302 291 271 265 261 258 256 253 247 252 250 250 248 249 249 249 250 252 253 249 248 249 250 247 250 254
25 23 18 13 9 6 4 1 358 358 358 0 354 344 339 329 315 305 296 290 277 270 264 262 257 254 257 258 257 254 253 255 249 248 251 250 249 248 251 252 251 253 254
19 16 12 8 4 2 359 356 354 350 350 351 351 342 334 323 311 299 293 289 284 276 268 262 263 262 257 258 256 254 255 255 252 249 251 250 250 252 254 253 253 253 253
14 8 6 3 359 358 357 353 347 342 340 342 344 345 342 334 321 306 296 290 281 274 269 266 264 264 258 256 255 256 256 255 255 251 252 253 252 254 256 257 259 259 255
13 9 4 0 357 355 352 350 349 346 342 339 338 338 336 334 323 313 303 295 288 281 274 270 267 266 261 257 257 258 258 258 255 256 257 258 257 256 257 259 260 262 259
9 7 5 1 359 357 355 353 350 347 340 334 334 336 336 335 329 320 309 300 294 290 283 274 271 272 269 261 258 260 260 261 259 259 259 260 259 257 257 259 260 262 262
2 3 3 358 354 353 354 352 350 346 341 332 332 333 332 331 327 323 315 306 300 293 285 277 274 272 272 266 260 259 260 261 262 262 259 259 259 260 260 262 262 264 265
352 357 2 360 355 350 348 346 345 341 339 336 328 330 329 326 325 322 317 309 304 300 292 285 278 272 271 270 263 259 259 260 261 261 261 259 260 262 263 266 267 268 270
349 351 351 351 351 349 346 344 342 338 336 334 332 332 330 325 322 321 319 314 304 297 295 288 283 278 274 270 266 263 261 259 260 260 261 262 262 263 264 266 266 267 267
344 346 346 346 345 342 339 339 340 337 334 333 332 333 333 329 325 322 316 313 306 302 298 292 284 282 278 273 268 266 265 264 259 260 262 265 265 265 264 264 264 265 266
337 340 342 341 339 335 333 333 334 332 330 328 330 331 328 326 326 323 318 314 308 303 300 296 288 285 281 277 274 270 266 264 263 263 263 265 266 266 266 265 265 266 267
328 333 335 334 335 334 331 329 328 326 325 324 325 326 324 323 323 323 321 317 312 307 303 299 294 288 285 281 278 275 271 268 265 265 265 264 266 268 267 266 265 267 268
Height
5871 5870 5870 5870 5870 5869 5869 5869 5869 5869 5869 5869 5869 5870 5871 5872 5872 5873 5874 5875 5876 5876 5877 5878 5879 5880 5880 5881 5882 5882 5883 5884 5884 5885 5886 5887 5887 5888 5888 5889 5889 5890 5891
5872 5871 5871 5870 5870 5870 5870 5870 5869 5869 5870 5870 5870 5871 5871 5872 5873 5873 5874 5875 5875 5876 5877 5877 5878 5879 5880 5881 5882 5882 5883 5884 5884 5885 5886 5886 5887 5888 5888 5889 5889 5890 5890
5872 5872 5872 5871 5871 5871 5870 5870 5870 5870 5870 5871 5871 5871 5872 5872 5873 5873 5874 5874 5875 5875 5876 5877 5878 5879 5880 5881 5882 5882 5883 5883 5884 5885 5885 5886 5887 5887 5888 5888 5889 5889 5890
5874 5873 5873 5872 5872 5871 5871 5871 5871 5871 5871 5871 5871 5872 5872 5872 5873 5873 5874 5874 5875 5875 5876 5876 5877 5878 5879 5880 5881 5882 5882 5883 5884 5884 5885 5886 5886 5887 5887 5888 5888 5889 5890
5875 5874 5874 5873 5872 5872 5871 5871 5872 5872 5872 5872 5872 5872 5872 5872 5873 5873 5873 5874 5874 5875 5875 5876 5877 5878 5879 5880 5881 5881 5882 5883 5883 5884 5885 5885 5886 5886 5887 5888 5888 5889 5889
5876 5875 5875 5874 5873 5872 5872 5872 5872 5873 5873 5873 5873 5872 5872 5872 5873 5873 5873 5873 5874 5874 5875 5876 5876 5877 5878 5879 5880 5881 5882 5882 5883 5883 5884 5885 5885 5886 5887 5887 5887 5888 5888
5877 5876 5875 5875 5874 5874 5873 5873 5873 5873 5873 5873 5873 5872 5872 5872 5872 5872 5872 5872 5873 5873 5874 5875 5876 5876 5877 5878 5879 5880 5881 5881 5882 5883 5883 5884 5885 5885 5886 5886 5887 5887 5888
5878 5877 5876 5875 5875 5875 5874 5874 5874 5873 5873 5873 5872 5872 5872 5871 5871 5872 5872 5872 5872 5873 5873 5874 5875 5876 5877 5877 5878 5879 5880 5880 5881 5882 5883 5883 5884 5884 5885 5886 5886 5887 5887
5880 5878 5877 5877 5876 5875 5875 5874 5874 5874 5873 5872 5872 5871 5871 5871 5871 5871 5871 5871 5871 5872 5873 5873 5874 5874 5875 5876 5877 5878 5879 5879 5880 5881 5882 5882 5883 5883 5884 5885 5885 5886 5887
5881 5880 5878 5877 5877 5876 5876 5875 5874 5874 5873 5872 5871 5871 5871 5871 5871 5871 5871 5871 5871 5871 5872 5872 5872 5873 5874 5875 5876 5876 5877 5878 5879 5880 5881 5882 5882 5883 5883 5884 5884 5885 5885
5882 5880 5879 5878 5878 5877 5876 5875 5875 5873 5872 5871 5871 5871 5871 5871 5870 5870 5870 5870 5870 5870 5870 5871 5871 5872 5873 5874 5875 5875 5876 5877 5878 5879 5880 5880 5881 5882 5882 5883 5883 5884 5884
5883 5881 5880 5879 5878 5877 5876 5876 5874 5873 5872 5871 5871 5871 5871 5870 5870 5870 5870 5870 5870 5870 5870 5870 5870 5871 5872 5873 5873 5874 5875 5876 5877 5877 5878 5879 5879 5880 5881 5881 5882 5882 5883
5884 5882 5881 5880 5879 5878 5877 5876 5875 5873 5872 5871 5871 5870 5870 5870 5870 5869 5869 5869 5869 5869 5869 5869 5869 5870 5871 5871 5872 5873 5874 5875 5875 5876 5877 5877 5878 5878 5879 5880 5880 5881 5881
5884 5883 5882 5881 5880 5878 5877 5876 5875 5873 5872 5870 5870 5870 5869 5869 5869 5869 5868 5869 5869 5869 5869 5868 5868 5869 5870 5870 5871 5872 5872 5873 5873 5874 5875 5876 5876 5877 5877 5878 5878 5879 5879
5885 5884 5882 5881 5880 5879 5877 5876 5875 5873 5872 5871 5870 5869 5869 5868 5868 5868 5867 5867 5868 5868 5868 5868 5867 5868 5869 5869 5869 5870 5871 5871 5871 5872 5873 5874 5874 5875 5875 5876 5876 5877 5877
5886 5884 5883 5881 5880 5878 5877 5876 5875 5873 5872 5871 5870 5869 5868 5868 5867 5867 5866 5866 5866 5866 5866 5866 5866 5867 5867 5867 5868 5868 5869 5869 5869 5870 5871 5871 5872 5872 5873 5873 5874 5874 5874
5886 5885 5883 5882 5880 5878 5877 5876 5874 5873 5872 5871 5869 5868 5867 5867 5866 5865 5865 5865 5864 5864 5864 5864 5864 5865 5865 5865 5866 5866 5866 5867 5867 5868 5868 5869 5870 5870 5870 5871 5871 5871 5872
5886 5885 5883 5882 5880 5878 5877 5875 5874 5873 5871 5870 5869 5867 5866 5865 5865 5864 5863 5863 5862 5862 5862 5862 5862 5862 5862 5863 5863 5864 5864 5864 5865 5865 5866 5866 5867 5867 5868 5868 5868 5868 5869
5886 5884 5883 5881 5880 5878 5876 5875 5873 5872 5871 5869 5868 5867 5865 5864 5863 5862 5861 5861 5860 5860 5859 5860 5860 5860 5860 5860 5861 5861 5862 5862 5862 5863 5863 5863 5864 5864 5865 5865 5865 5865 5865
5885 5883 5882 5880 5879 5877 5875 5873 5872 5871 5869 5868 5867 5866 5864 5863 5862 5861 5860 5859 5858 5857 5857 5857 5857 5857 5857 5857 5858 5858 5859 5859 5859 5859 5860 5860 5860 5861 5861 5861 5861 5862 5862
5885 5883 5881 5879 5878 5876 5874 5871 5870 5869 5868 5867 5866 5865 5863 5862 5860 5859 5858 5857 5856 5855 5855 5854 5854 5854 5854 5854 5854 5855 5856 5856 5856 5856 5856 5857 5857 5857 5857 5857 5858 5858 5858
5885 5882 5880 5878 5877 5875 5873 5870 5869 5868 5867 5866 5864 5863 5861 5860 5858 5857 5856 5854 5854 5853 5852 5851 5851 5851 5851 5850 5851 5851 5852 5853 5852 5852 5853 5853 5853 5853 5853 5853 5854 5854 5854
5884 5882 5880 5878 5876 5874 5872 5870 5868 5867 5865 5864 5863 5861 5860 5858 5856 5855 5853 5852 5851 5850 5849 5848 5847 5847 5847 5847 5847 5847 5847 5848 5848 5848 5848 5849 5849 5849 5849 5849 5849 5849 5849
5883 5881 5879 5877 5876 5874 5871 5869 5867 5865 5864 5863 5861 5860 5858 5856 5854 5853 5851 5849 5848 5847 5846 5845 5844 5844 5843 5843 5843 5843 5843 5843 5844 5844 5844 5844 5844 5844 5844 5844 5844 5844 5844
5882 5880 5878 5876 5874 5872 5870 5868 5865 5863 5862 5861 5860 5858 5856 5854 5853 5850 5849 5847 5845 5844 5843 5842 5841 5840 5839 5839 5839 5838 5838 5839 5839 5839 5840 5840 5839 5839 5839 5839 5839 5839 5839
5880 5879 5877 5874 5873 5870 5868 5866 5864 5862 5860 5859 5857 5856 5854 5852 5851 5848 5846 5844 5842 5841 5839 5838 5837 5836 5835 5835 5835 5834 5834 5834 5834 5834 5834 5834 5834 5834 5833 5833 5833 5833 5833